Simultaneous Nadir Overpasses (SNOs) Predictions

Prediction of SNOs between GOES-17 and METOP-C Satellite Orbit:

Table of predicted SNOs for the next 14.0 days since TLE Epoch: 1/23/2022
Index Date Time (GOES-17) GOES-17 Lat,Lon METOP-C Lat,Lon Distance(km) Time Diff (sec)
1 01/24/2022 06:52:10 -0.01,-137.22 -0.55,-139.77 289.25 80
2 01/25/2022 06:28:51 0.00,-137.22 0.55,-134.77 279.64 80
3 01/26/2022 18:50:21 0.00,-137.23 0.49,-139.32 239.08 80
4 01/27/2022 18:27:03 -0.01,-137.22 -0.67,-134.34 329.19 80
5 01/29/2022 06:48:44 0.01,-137.20 -0.37,-138.93 197.66 80
6 01/30/2022 06:25:24 0.01,-137.18 0.73,-133.94 370.06 80
7 01/31/2022 18:44:16 -0.02,-137.17 0.25,-138.50 150.44 80
8 02/01/2022 18:26:15 0.01,-137.16 -0.80,-133.49 418.16 80
9 02/03/2022 06:42:37 -0.02,-137.13 -0.23,-138.09 108.97 80
10 02/04/2022 06:24:37 -0.02,-137.12 0.87,-133.09 458.82 80
11 02/05/2022 18:40:48 0.02,-137.11 0.11,-137.65 61.77 80
